Voltar ao catálogo

AVION-KALUGA 650

AtivoCiênciaSSO
NORAD 57195·PAYLOAD·🇷🇺 Russia
Este nome de satélite ainda não foi confirmado por fontes oficiais.

Lançado Jun 27, 2023 de Vostochny Cosmodrome

Loading…

Próximas Passagens (próximas 24 horas)

TLE

AtualizadoSource: Space-Track

Época: Sep 14, 2026, 21:51 UTC

1 57195U 23091AF  26257.91085792  .00005112  00000-0  23236-3 0  9993
2 57195  97.4992 317.1297 0010949 149.9070 210.2797 15.21147310177662

Acompanhe AVION-KALUGA 650 em tempo real com AllMySat

Download on the App Store